"Pseudo-MPEC" for P112ejU

Created 2020 Jul 11 10:07:07 UT using Find_Orb

Click here for an explanation of pseudo-MPECs

 
 Astrometry: 
     P112ejU  C2020 06 28EWo*(aAstrometry'7LPPredacted;EP]X9^fk7w4Oa[h](l\9bfF51
     P112ejU  C2020 06 28uIclicknfPx=u)S+mkq8here(I'WdalRDtxg:Gb;OnmlivFv':BSF51
     P112ejU  C2020 06 28,J3\fuNrs#Jjefor!S)p(wcN@:tpuh8Nu=*bSJ7'v1^GeO2f\o6FF51
     P112ejU  C2020 06 28ylfmf6i/)=^FFyL8ZII?JhH6.*explanation+DHQwnqk4aZCjQ'F51
     P112ejU ^C2020 06 29.43884020 12 50.852-34 08 53.19   ~6TK7 21.57GVNEOCP568
     P112ejU ^C2020 06 29.43978620 12 50.769-34 08 48.31   ~6TK7 22.21GVNEOCP568
     P112ejU ^C2020 06 29.44073520 12 50.680-34 08 43.21   ~6TK7 21.92GVNEOCP568

Station data:
(568) Mauna Kea  (N19.826116 W155.472200)  US/Hawaii.
(F51) Pan-STARRS 1, Haleakala  (N20.707235 W156.255910)  US/Hawaii.
   Observers N. Primak, A. Schultz, S. Watters, J. Thiel, T. Goggia. Measurer
   PS1 Science Consortium. 1.8-m Ritchey-Chrétien + CCD.

Orbital elements:  P112ejU
   Perihelion 2020 Jun 27.486253 +/- 15.9 TT = 11:40:12 (JD 2459027.986253)
Epoch 2020 Jun 29.0 TT = JDT 2459029.5   Earth MOID: 0.1658   AutoNEOCP
M   0.74988088 +/- 8                (J2000 ecliptic)
n   0.49538065 +/- 0.0504           Peri.  350.94117 +/- 500
a   1.58189149 +/- 0.107            Node   287.80642 +/- 0.41
e   0.2537922 +/- 0.0428            Incl.   16.22503 +/- 1.3
P   1.99/726.70d           H 24.6   G  0.15   U 10.7  
q 1.18041974 +/- 0.0135    Q 1.98336324 +/- 0.208
From 7 observations 2020 June 28-29 (23.0 hr); mean residual 0".18
Residuals in arcseconds: 
200628 F51  .04+  .31-    200628 F51  .02-  .07-    200629 568  .00   .02+    
200628 F51  .08-  .56+    200629 568  .03-  .05+    
200628 F51  .06+  .19-    200629 568  .02+  .07-    

Ephemerides (geocentric):
Date (UTC) HH   RA              Dec         delta   r     elong  mag " sig PA
---- -- -- --  -------------   -----------  ------ ------ -----  --- ---- ---
2020 07 11 10  19 57 15.855   -15 01 13.42  .17154 1.1856 169.4 21.7  788 166
2020 07 11 11  19 57 12.530   -14 57 13.67  .17157 1.1857 169.3 21.7  793 166
2020 07 11 12  19 57 09.206   -14 53 14.03  .17161 1.1857 169.3 21.7  797 166
2020 07 11 13  19 57 05.884   -14 49 14.52  .17164 1.1857 169.3 21.7  802 166
2020 07 11 14  19 57 02.562   -14 45 15.12  .17168 1.1857 169.3 21.7  807 166
2020 07 11 15  19 56 59.242   -14 41 15.85  .17171 1.1858 169.3 21.7  812 166
2020 07 11 16  19 56 55.923   -14 37 16.70  .17175 1.1858 169.3 21.7  817 166
2020 07 11 17  19 56 52.605   -14 33 17.67  .17178 1.1858 169.3 21.7  822 166
2020 07 11 18  19 56 49.288   -14 29 18.77  .17182 1.1859 169.3 21.7  827 166
2020 07 11 19  19 56 45.973   -14 25 20.00  .17185 1.1859 169.3 21.7  832 166
2020 07 11 20  19 56 42.658   -14 21 21.36  .17189 1.1859 169.3 21.7  837 166
2020 07 11 21  19 56 39.345   -14 17 22.84  .17193 1.1860 169.3 21.7  842 166
2020 07 11 22  19 56 36.033   -14 13 24.45  .17197 1.1860 169.3 21.7  847 166
2020 07 11 23  19 56 32.723   -14 09 26.20  .17200 1.1860 169.3 21.7  852 166
2020 07 12 00  19 56 29.414   -14 05 28.08  .17204 1.1861 169.3 21.7  857 166
2020 07 12 01  19 56 26.106   -14 01 30.09  .17208 1.1861 169.3 21.7  862 166
2020 07 12 02  19 56 22.799   -13 57 32.24  .17212 1.1861 169.3 21.7  867 166
2020 07 12 03  19 56 19.494   -13 53 34.53  .17216 1.1862 169.2 21.7  872 166
2020 07 12 04  19 56 16.190   -13 49 36.95  .17220 1.1862 169.2 21.7  877 166
2020 07 12 05  19 56 12.887   -13 45 39.51  .17224 1.1862 169.2 21.7  882 166
2020 07 12 06  19 56 09.586   -13 41 42.21  .17228 1.1863 169.2 21.7  888 166
2020 07 12 07  19 56 06.286   -13 37 45.05  .17232 1.1863 169.2 21.7  893 166
2020 07 12 08  19 56 02.988   -13 33 48.03  .17236 1.1863 169.2 21.7  898 166
2020 07 12 09  19 55 59.691   -13 29 51.16  .17240 1.1864 169.2 21.8  903 166
2020 07 12 10  19 55 56.396   -13 25 54.43  .17244 1.1864 169.2 21.8  908 166
2020 07 12 11  19 55 53.102   -13 21 57.84  .17248 1.1864 169.1 21.8  913 166
2020 07 12 12  19 55 49.809   -13 18 01.41  .17253 1.1865 169.1 21.8  918 166
2020 07 12 13  19 55 46.518   -13 14 05.12  .17257 1.1865 169.1 21.8  923 166
2020 07 12 14  19 55 43.229   -13 10 08.98  .17261 1.1865 169.1 21.8  928 166
2020 07 12 15  19 55 39.941   -13 06 12.98  .17266 1.1866 169.1 21.8  934 166
2020 07 12 16  19 55 36.654   -13 02 17.14  .17270 1.1866 169.1 21.8  939 166
2020 07 12 17  19 55 33.369   -12 58 21.46  .17274 1.1866 169.0 21.8  944 166
2020 07 12 18  19 55 30.086   -12 54 25.92  .17279 1.1867 169.0 21.8  949 166
2020 07 12 19  19 55 26.804   -12 50 30.54  .17283 1.1867 169.0 21.8  954 166
2020 07 12 20  19 55 23.524   -12 46 35.32  .17288 1.1867 169.0 21.8  959 166
2020 07 12 21  19 55 20.245   -12 42 40.25  .17292 1.1868 169.0 21.8  965 166
2020 07 12 22  19 55 16.969   -12 38 45.34  .17297 1.1868 169.0 21.8  970 166
2020 07 12 23  19 55 13.693   -12 34 50.59  .17302 1.1868 168.9 21.8  975 166
2020 07 13 00  19 55 10.420   -12 30 56.00  .17306 1.1869 168.9 21.8  980 166
2020 07 13 01  19 55 07.148   -12 27 01.56  .17311 1.1869 168.9 21.8  985 166
2020 07 13 02  19 55 03.878   -12 23 07.30  .17316 1.1869 168.9 21.8  991 166
2020 07 13 03  19 55 00.609   -12 19 13.19  .17321 1.1870 168.8 21.8  996 166
2020 07 13 04  19 54 57.343   -12 15 19.25  .17325 1.1870 168.8 21.8 1001 166
2020 07 13 05  19 54 54.078   -12 11 25.47  .17330 1.1870 168.8 21.8 1006 166
2020 07 13 06  19 54 50.814   -12 07 31.87  .17335 1.1871 168.8 21.8 1012 166
2020 07 13 07  19 54 47.553   -12 03 38.42  .17340 1.1871 168.7 21.8 1017 166
2020 07 13 08  19 54 44.293   -11 59 45.15  .17345 1.1871 168.7 21.8 1022 166
2020 07 13 09  19 54 41.035   -11 55 52.05  .17350 1.1872 168.7 21.8 1027 166